TRA40M EHRD-GMMW

Flight info

Callsign TRA40M
Flight time 2h 53m
Altitude 33000
Route WOODY N872 MEDIL/N0446F370 UN872 LESDO UM728 KOVIN/N0408F290 UL194 ODEBU/N0442F370 UL612 OGULO DCT BEBIX DCT ANETO N860 AMR/N0439F380 M372 ESAMI UM372 ARI
Aircraft B738/M-SDE2E3FGHIJ1RWXYZ/LB1

Departure

Time 2026-04-28 06:31
Airport Rotterdam The Hague Airport (EHRD)

Arrival

Time 2026-04-28 09:24
Airport Nador Al Aaroui International Airport (GMMW)
Time Latitude Longitude Altitude Speed Heading
2026-04-28 06:05 51.95069 4.43369 1 ft 0 kts 326°
2026-04-28 06:25 51.95070 4.43368 0 ft 1 kts 326°
2026-04-28 06:25 51.95092 4.43352 0 ft 5 kts 353°
2026-04-28 06:25 51.95122 4.43382 0 ft 5 kts 53°
2026-04-28 06:25 51.95143 4.43432 0 ft 6 kts 57°
2026-04-28 06:26 51.95168 4.43486 0 ft 6 kts 35°
2026-04-28 06:26 51.95209 4.43470 0 ft 6 kts 330°
2026-04-28 06:26 51.95242 4.43424 0 ft 6 kts 289°
2026-04-28 06:26 51.95227 4.43357 0 ft 7 kts 236°
2026-04-28 06:27 51.95197 4.43285 0 ft 9 kts 237°
2026-04-28 06:27 51.95157 4.43184 0 ft 12 kts 240°
2026-04-28 06:27 51.95127 4.43083 1 ft 6 kts 245°
2026-04-28 06:27 51.95117 4.43046 1 ft 2 kts 245°
2026-04-28 06:28 51.95113 4.43032 0 ft 0 kts 246°
2026-04-28 06:29 51.95112 4.43025 0 ft 2 kts 251°
2026-04-28 06:29 51.95110 4.42973 0 ft 7 kts 283°
2026-04-28 06:29 51.95157 4.42901 0 ft 10 kts 328°
2026-04-28 06:29 51.95210 4.42855 1 ft 7 kts 354°
2026-04-28 06:30 51.95228 4.42874 1 ft 3 kts 52°
2026-04-28 06:30 51.95233 4.42885 2 ft 5 kts 54°
2026-04-28 06:30 51.95407 4.43318 -1 ft 91 kts 57°
2026-04-28 06:30 51.95701 4.44052 1 ft 143 kts 56°
2026-04-28 06:31 51.96309 4.45595 609 ft 167 kts 56°
2026-04-28 06:31 51.96896 4.47124 2035 ft 153 kts 60°
2026-04-28 06:31 51.97404 4.48514 2687 ft 175 kts 62°
2026-04-28 06:31 51.98041 4.50360 3020 ft 202 kts 62°
2026-04-28 06:32 51.98742 4.52507 3351 ft 221 kts 64°
2026-04-28 06:32 51.99454 4.54817 3868 ft 238 kts 65°
2026-04-28 06:32 52.00022 4.57372 4593 ft 246 kts 84°
2026-04-28 06:32 51.99819 4.60109 5632 ft 248 kts 109°
2026-04-28 06:33 51.98921 4.62544 6534 ft 258 kts 131°
2026-04-28 06:33 51.97449 4.64259 7422 ft 265 kts 149°
2026-04-28 06:33 51.95796 4.65618 8342 ft 268 kts 152°
2026-04-28 06:33 51.93983 4.66407 9248 ft 277 kts 176°
2026-04-28 06:34 51.92084 4.65799 10181 ft 284 kts 203°
2026-04-28 06:34 51.90490 4.63826 10817 ft 302 kts 227°
2026-04-28 06:34 51.89203 4.60939 11049 ft 329 kts 234°
2026-04-28 06:34 51.87870 4.57815 11508 ft 343 kts 228°
2026-04-28 06:35 51.86023 4.55413 12262 ft 342 kts 204°
2026-04-28 06:35 51.83784 4.54165 13170 ft 340 kts 193°
2026-04-28 06:35 51.81474 4.53205 13934 ft 346 kts 192°
2026-04-28 06:35 51.79124 4.52278 14692 ft 349 kts 191°
2026-04-28 06:36 51.76767 4.51349 15507 ft 349 kts 192°
2026-04-28 06:36 51.74396 4.50407 16212 ft 353 kts 192°
2026-04-28 06:36 51.72005 4.49443 16999 ft 354 kts 192°
2026-04-28 06:36 51.69606 4.48467 17754 ft 358 kts 193°
2026-04-28 06:37 51.67170 4.47470 18374 ft 363 kts 193°
2026-04-28 06:37 51.64722 4.46466 19074 ft 364 kts 193°
2026-04-28 06:37 51.62254 4.45452 19687 ft 368 kts 193°
2026-04-28 06:37 51.59765 4.44431 20278 ft 371 kts 193°
2026-04-28 06:38 51.57255 4.43401 20919 ft 373 kts 193°
2026-04-28 06:38 51.54723 4.42364 21516 ft 377 kts 193°
2026-04-28 06:38 51.52166 4.41318 22094 ft 381 kts 193°
2026-04-28 06:38 51.49589 4.40265 22673 ft 384 kts 193°
2026-04-28 06:39 51.46991 4.39205 23230 ft 387 kts 194°
2026-04-28 06:39 51.44368 4.38135 23788 ft 390 kts 194°
2026-04-28 06:39 51.41726 4.37059 24252 ft 393 kts 194°
2026-04-28 06:39 51.39115 4.35730 24703 ft 396 kts 202°
2026-04-28 06:40 51.36622 4.33853 25186 ft 397 kts 206°
2026-04-28 06:40 51.34141 4.31865 25672 ft 399 kts 206°
2026-04-28 06:40 51.31644 4.29921 26143 ft 401 kts 206°
2026-04-28 06:40 51.29124 4.27993 26588 ft 402 kts 206°
2026-04-28 06:41 51.26589 4.26061 27035 ft 404 kts 206°
2026-04-28 06:41 51.24048 4.24128 27476 ft 406 kts 206°
2026-04-28 06:41 51.21489 4.22185 27891 ft 408 kts 206°
2026-04-28 06:41 51.18953 4.20261 28280 ft 410 kts 206°
2026-04-28 06:42 51.16364 4.18330 28660 ft 413 kts 204°
2026-04-28 06:42 51.13669 4.16700 29045 ft 415 kts 201°
2026-04-28 06:42 51.10928 4.15212 29434 ft 418 kts 200°
2026-04-28 06:42 51.08127 4.13733 29876 ft 418 kts 200°
2026-04-28 06:43 51.05412 4.12295 30377 ft 416 kts 200°
2026-04-28 06:43 51.02677 4.10830 30759 ft 415 kts 200°
2026-04-28 06:43 50.99894 4.09324 31029 ft 418 kts 200°
2026-04-28 06:43 50.97133 4.07821 31302 ft 420 kts 200°
2026-04-28 06:44 50.94402 4.06333 31627 ft 421 kts 200°
2026-04-28 06:44 50.91633 4.04826 31956 ft 422 kts 200°
2026-04-28 06:44 50.88849 4.03316 32232 ft 424 kts 200°
2026-04-28 06:44 50.86073 4.01727 32525 ft 425 kts 202°
2026-04-28 06:45 50.83328 3.99994 32822 ft 426 kts 204°
2026-04-28 06:45 50.80585 3.98198 33114 ft 427 kts 204°
2026-04-28 06:45 50.77837 3.96392 33383 ft 429 kts 204°
2026-04-28 06:45 50.75075 3.94591 33692 ft 429 kts 204°
2026-04-28 06:46 50.72310 3.92806 33995 ft 430 kts 204°
2026-04-28 06:46 50.69531 3.91024 34262 ft 431 kts 204°
2026-04-28 06:46 50.66750 3.89250 34509 ft 432 kts 204°
2026-04-28 06:46 50.63963 3.87474 34749 ft 432 kts 204°
2026-04-28 06:47 50.61173 3.85699 35024 ft 432 kts 204°
2026-04-28 06:47 50.58379 3.83924 35165 ft 434 kts 204°
2026-04-28 06:47 50.55580 3.82116 35152 ft 435 kts 205°
2026-04-28 06:48 50.50045 3.78349 35150 ft 431 kts 205°
2026-04-28 06:48 50.44573 3.74577 35148 ft 428 kts 205°
2026-04-28 06:49 50.39123 3.70847 35147 ft 427 kts 205°
2026-04-28 06:49 50.33675 3.67145 35154 ft 427 kts 205°
2026-04-28 06:50 50.28218 3.63452 35145 ft 427 kts 205°
2026-04-28 06:50 50.22755 3.59766 35143 ft 428 kts 205°
2026-04-28 06:51 50.17281 3.56080 35153 ft 429 kts 205°
2026-04-28 06:51 50.11792 3.52394 35149 ft 430 kts 206°
2026-04-28 06:52 50.06293 3.48710 35146 ft 430 kts 206°
2026-04-28 06:52 50.00788 3.45031 35135 ft 431 kts 206°
2026-04-28 06:53 49.95285 3.41363 35130 ft 430 kts 206°
2026-04-28 06:53 49.89782 3.37704 35124 ft 430 kts 206°
2026-04-28 06:54 49.84283 3.34056 35134 ft 430 kts 206°
2026-04-28 06:54 49.78788 3.30421 35122 ft 429 kts 206°
2026-04-28 06:55 49.73308 3.26804 35122 ft 428 kts 206°
2026-04-28 06:55 49.67873 3.23225 35112 ft 427 kts 206°
2026-04-28 06:56 49.62418 3.19642 35124 ft 426 kts 206°
2026-04-28 06:56 49.56972 3.16072 35119 ft 425 kts 206°
2026-04-28 06:57 49.51532 3.12515 35113 ft 424 kts 206°
2026-04-28 06:57 49.46306 3.08435 35111 ft 419 kts 216°
2026-04-28 06:58 49.41464 3.03465 35112 ft 418 kts 217°
2026-04-28 06:58 49.36634 2.98486 35106 ft 418 kts 217°
2026-04-28 06:59 49.31788 2.93555 35105 ft 418 kts 217°
2026-04-28 06:59 49.26930 2.88649 35108 ft 418 kts 217°
2026-04-28 07:00 49.22751 2.84443 35102 ft 418 kts 217°
2026-04-28 07:00 49.17885 2.79555 35102 ft 419 kts 217°
2026-04-28 07:01 49.13009 2.74668 35099 ft 419 kts 217°
2026-04-28 07:01 49.08138 2.69796 35095 ft 418 kts 217°
2026-04-28 07:02 49.03270 2.64939 35105 ft 418 kts 217°
2026-04-28 07:02 48.98407 2.60097 35107 ft 418 kts 217°
2026-04-28 07:03 48.93540 2.55265 35103 ft 417 kts 217°
2026-04-28 07:03 48.88680 2.50449 35102 ft 417 kts 217°
2026-04-28 07:04 48.83830 2.45651 35102 ft 416 kts 217°
2026-04-28 07:04 48.78982 2.40865 35104 ft 415 kts 217°
2026-04-28 07:05 48.74141 2.36097 35102 ft 414 kts 217°
2026-04-28 07:05 48.69310 2.31349 35105 ft 414 kts 217°
2026-04-28 07:06 48.64512 2.26643 35101 ft 413 kts 217°
2026-04-28 07:06 48.59688 2.21926 35096 ft 413 kts 216°
2026-04-28 07:07 48.54427 2.18306 35094 ft 422 kts 199°
2026-04-28 07:07 48.48655 2.16442 35086 ft 425 kts 196°
2026-04-28 07:08 48.42869 2.14665 35091 ft 424 kts 197°
2026-04-28 07:08 48.37101 2.12826 35085 ft 423 kts 197°
2026-04-28 07:09 48.31344 2.10977 35075 ft 424 kts 196°
2026-04-28 07:09 48.25409 2.10472 35068 ft 435 kts 178°
2026-04-28 07:10 48.19408 2.11856 35065 ft 436 kts 176°
2026-04-28 07:10 48.13413 2.13181 35068 ft 434 kts 178°
2026-04-28 07:11 48.07429 2.13721 35071 ft 430 kts 184°
2026-04-28 07:11 48.01454 2.13976 35073 ft 429 kts 184°
2026-04-28 07:12 47.95482 2.14259 35075 ft 429 kts 184°
2026-04-28 07:12 47.89517 2.14587 35075 ft 429 kts 184°
2026-04-28 07:13 47.83555 2.14932 35072 ft 428 kts 184°
2026-04-28 07:13 47.77609 2.15278 35071 ft 427 kts 184°
2026-04-28 07:14 47.71670 2.15622 35067 ft 427 kts 184°
2026-04-28 07:14 47.65744 2.15964 35064 ft 426 kts 184°
2026-04-28 07:15 47.59831 2.16304 35064 ft 425 kts 184°
2026-04-28 07:15 47.53932 2.16643 35058 ft 424 kts 184°
2026-04-28 07:16 47.48048 2.16979 35059 ft 423 kts 184°
2026-04-28 07:16 47.42176 2.17315 35055 ft 422 kts 184°
2026-04-28 07:17 47.37297 2.17593 35055 ft 422 kts 185°
2026-04-28 07:17 47.31434 2.17926 35053 ft 421 kts 185°
2026-04-28 07:18 47.24630 2.18312 35049 ft 421 kts 185°
2026-04-28 07:18 47.19722 2.18589 35046 ft 421 kts 185°
2026-04-28 07:19 47.13863 2.18920 35050 ft 421 kts 185°
2026-04-28 07:19 47.08009 2.19167 35043 ft 418 kts 189°
2026-04-28 07:20 47.02230 2.18567 35046 ft 416 kts 192°
2026-04-28 07:20 46.96457 2.17813 35042 ft 417 kts 192°
2026-04-28 07:21 46.90673 2.17095 35046 ft 418 kts 191°
2026-04-28 07:21 46.84872 2.16412 35043 ft 419 kts 191°
2026-04-28 07:22 46.76195 2.15413 35045 ft 419 kts 191°
2026-04-28 07:22 46.70338 2.14740 35040 ft 419 kts 191°
2026-04-28 07:23 46.64564 2.14079 35044 ft 419 kts 191°
2026-04-28 07:23 46.58760 2.13415 35044 ft 418 kts 191°
2026-04-28 07:24 46.52973 2.12755 35040 ft 416 kts 191°
2026-04-28 07:24 46.47208 2.12098 35040 ft 415 kts 191°
2026-04-28 07:25 46.41460 2.11444 35037 ft 414 kts 191°
2026-04-28 07:25 46.35733 2.10794 35031 ft 412 kts 191°
2026-04-28 07:26 46.30021 2.10146 35033 ft 411 kts 191°
2026-04-28 07:26 46.24316 2.09501 35038 ft 411 kts 191°
2026-04-28 07:27 46.18663 2.08583 35032 ft 404 kts 199°
2026-04-28 07:27 46.13422 2.05952 35035 ft 398 kts 207°
2026-04-28 07:28 46.08245 2.03042 35035 ft 400 kts 207°
2026-04-28 07:28 46.03035 2.00142 35036 ft 402 kts 207°
2026-04-28 07:29 45.97798 1.97260 35037 ft 404 kts 207°
2026-04-28 07:29 45.92535 1.94380 35029 ft 406 kts 206°
2026-04-28 07:30 45.87250 1.91498 35021 ft 406 kts 206°
2026-04-28 07:30 45.81959 1.88619 35025 ft 407 kts 206°
2026-04-28 07:31 45.76666 1.85745 35017 ft 407 kts 206°
2026-04-28 07:31 45.71378 1.82879 35022 ft 407 kts 206°
2026-04-28 07:32 45.66082 1.80014 35019 ft 406 kts 206°
2026-04-28 07:32 45.60811 1.77169 35019 ft 405 kts 206°
2026-04-28 07:33 45.55545 1.74331 35015 ft 404 kts 206°
2026-04-28 07:33 45.50321 1.71521 35004 ft 403 kts 206°
2026-04-28 07:34 45.45077 1.68707 35009 ft 402 kts 206°
2026-04-28 07:34 45.39842 1.65903 35014 ft 402 kts 206°
2026-04-28 07:35 45.34609 1.63105 35017 ft 402 kts 206°
2026-04-28 07:35 45.29365 1.60306 35018 ft 403 kts 206°
2026-04-28 07:36 45.24117 1.57511 35015 ft 404 kts 206°
2026-04-28 07:36 45.18855 1.54715 35015 ft 404 kts 206°
2026-04-28 07:37 45.13592 1.51924 35021 ft 404 kts 206°
2026-04-28 07:37 45.08324 1.49136 35023 ft 404 kts 206°
2026-04-28 07:38 45.03046 1.46347 35019 ft 405 kts 205°
2026-04-28 07:38 44.97758 1.43559 35015 ft 406 kts 205°
2026-04-28 07:39 44.92471 1.40777 35019 ft 406 kts 205°
2026-04-28 07:39 44.87174 1.37995 35015 ft 406 kts 205°
2026-04-28 07:40 44.81874 1.35217 35010 ft 407 kts 205°
2026-04-28 07:40 44.76568 1.32442 35015 ft 407 kts 205°
2026-04-28 07:41 44.71262 1.29672 35008 ft 407 kts 205°
2026-04-28 07:41 44.65991 1.26925 35008 ft 407 kts 205°
2026-04-28 07:42 44.60660 1.24152 35016 ft 410 kts 205°
2026-04-28 07:42 44.55297 1.21369 34998 ft 412 kts 205°
2026-04-28 07:43 44.49937 1.18593 35007 ft 410 kts 205°
2026-04-28 07:43 44.44595 1.15833 35016 ft 408 kts 205°
2026-04-28 07:44 44.39273 1.13087 35013 ft 408 kts 205°
2026-04-28 07:44 44.33947 1.10344 35010 ft 408 kts 204°
2026-04-28 07:45 44.28626 1.07608 35014 ft 407 kts 204°
2026-04-28 07:45 44.23316 1.04885 35016 ft 406 kts 204°
2026-04-28 07:46 44.18007 1.02166 35017 ft 406 kts 204°
2026-04-28 07:46 44.12733 0.99470 35021 ft 407 kts 204°
2026-04-28 07:47 44.07384 0.96742 35023 ft 407 kts 204°
2026-04-28 07:47 44.02053 0.94027 35034 ft 409 kts 204°
2026-04-28 07:48 43.96728 0.91320 35020 ft 411 kts 204°
2026-04-28 07:48 43.91360 0.88598 35022 ft 411 kts 204°
2026-04-28 07:49 43.85844 0.86395 35031 ft 415 kts 195°
2026-04-28 07:49 43.80165 0.84911 35027 ft 415 kts 194°
2026-04-28 07:50 43.74482 0.83440 35023 ft 415 kts 195°
2026-04-28 07:50 43.68815 0.81945 35026 ft 415 kts 195°
2026-04-28 07:51 43.63154 0.80438 35031 ft 414 kts 195°
2026-04-28 07:51 43.57495 0.78930 35023 ft 414 kts 195°
2026-04-28 07:52 43.51847 0.77428 35026 ft 414 kts 195°
2026-04-28 07:52 43.46195 0.75928 35026 ft 414 kts 194°
2026-04-28 07:53 43.40544 0.74431 35031 ft 413 kts 194°
2026-04-28 07:53 43.34895 0.72938 35029 ft 413 kts 194°
2026-04-28 07:54 43.29252 0.71449 35025 ft 413 kts 194°
2026-04-28 07:54 43.23604 0.69962 35026 ft 413 kts 194°
2026-04-28 07:55 43.17960 0.68478 35026 ft 413 kts 194°
2026-04-28 07:55 43.12306 0.66995 35036 ft 414 kts 194°
2026-04-28 07:56 43.06651 0.65514 35037 ft 414 kts 194°
2026-04-28 07:56 43.00985 0.64033 35044 ft 415 kts 194°
2026-04-28 07:57 42.95348 0.62562 35036 ft 416 kts 194°
2026-04-28 07:57 42.89675 0.61085 35037 ft 414 kts 194°
2026-04-28 07:58 42.84025 0.59616 35048 ft 413 kts 194°
2026-04-28 07:58 42.78377 0.58151 35035 ft 413 kts 194°
2026-04-28 07:59 42.72751 0.56695 35046 ft 412 kts 194°
2026-04-28 07:59 42.67111 0.55237 35049 ft 412 kts 194°
2026-04-28 08:00 42.61461 0.53790 35041 ft 414 kts 193°
2026-04-28 08:00 42.55796 0.52342 35043 ft 415 kts 193°
2026-04-28 08:01 42.50123 0.50894 35043 ft 415 kts 193°
2026-04-28 08:01 42.44451 0.49447 35039 ft 415 kts 193°
2026-04-28 08:02 42.38775 0.48003 35044 ft 414 kts 193°
2026-04-28 08:02 42.33115 0.46561 35039 ft 414 kts 193°
2026-04-28 08:03 42.27460 0.45116 35037 ft 413 kts 193°
2026-04-28 08:03 42.21822 0.43676 35035 ft 412 kts 193°
2026-04-28 08:04 42.16189 0.42241 35032 ft 412 kts 193°
2026-04-28 08:04 42.10561 0.40811 35023 ft 411 kts 193°
2026-04-28 08:05 42.05892 0.39625 35022 ft 411 kts 193°
2026-04-28 08:05 42.00276 0.38202 35026 ft 411 kts 193°
2026-04-28 08:06 41.94651 0.36782 35023 ft 411 kts 193°
2026-04-28 08:06 41.89030 0.35369 35024 ft 411 kts 193°
2026-04-28 08:07 41.83397 0.33955 35025 ft 412 kts 192°
2026-04-28 08:07 41.77760 0.32541 35017 ft 413 kts 192°
2026-04-28 08:08 41.72110 0.31131 35023 ft 413 kts 192°
2026-04-28 08:08 41.66454 0.29729 35021 ft 413 kts 192°
2026-04-28 08:09 41.60795 0.28330 35021 ft 414 kts 192°
2026-04-28 08:09 41.55134 0.26931 35018 ft 414 kts 192°
2026-04-28 08:10 41.49469 0.25533 35026 ft 414 kts 192°
2026-04-28 08:10 41.43813 0.24140 35024 ft 413 kts 192°
2026-04-28 08:11 41.38156 0.22749 35023 ft 413 kts 192°
2026-04-28 08:11 41.32504 0.21352 35019 ft 413 kts 192°
2026-04-28 08:12 41.26864 0.19919 35020 ft 413 kts 192°
2026-04-28 08:12 41.21216 0.18518 35021 ft 413 kts 192°
2026-04-28 08:13 41.15573 0.17134 35020 ft 412 kts 192°
2026-04-28 08:13 41.09996 0.15416 35026 ft 411 kts 198°
2026-04-28 08:14 41.04570 0.13188 35019 ft 411 kts 199°
2026-04-28 08:14 40.99101 0.10949 35019 ft 412 kts 198°
2026-04-28 08:15 40.93619 0.08754 35021 ft 412 kts 198°
2026-04-28 08:15 40.88126 0.06570 35022 ft 412 kts 198°
2026-04-28 08:16 40.82636 0.04371 35023 ft 413 kts 198°
2026-04-28 08:16 40.77130 0.02152 35027 ft 414 kts 198°
2026-04-28 08:17 40.71619 -0.00064 35031 ft 414 kts 198°
2026-04-28 08:17 40.66102 -0.02278 35024 ft 415 kts 198°
2026-04-28 08:18 40.60581 -0.04488 35028 ft 415 kts 198°
2026-04-28 08:18 40.55059 -0.06694 35025 ft 415 kts 198°
2026-04-28 08:19 40.49537 -0.08878 35030 ft 415 kts 198°
2026-04-28 08:19 40.44011 -0.11056 35022 ft 415 kts 198°
2026-04-28 08:20 40.38482 -0.13235 35020 ft 415 kts 198°
2026-04-28 08:20 40.32957 -0.15409 35024 ft 414 kts 198°
2026-04-28 08:21 40.27433 -0.17580 35022 ft 415 kts 198°
2026-04-28 08:21 40.21908 -0.19754 35026 ft 415 kts 198°
2026-04-28 08:22 40.16385 -0.21939 35034 ft 415 kts 198°
2026-04-28 08:22 40.10859 -0.24123 35030 ft 415 kts 198°
2026-04-28 08:23 40.05333 -0.26301 35037 ft 415 kts 198°
2026-04-28 08:23 39.99796 -0.28479 35036 ft 416 kts 198°
2026-04-28 08:24 39.94248 -0.30621 35044 ft 416 kts 198°
2026-04-28 08:24 39.88736 -0.32739 35052 ft 416 kts 198°
2026-04-28 08:25 39.83178 -0.34897 35043 ft 417 kts 198°
2026-04-28 08:26 39.74838 -0.38146 35049 ft 417 kts 198°
2026-04-28 08:26 39.69271 -0.40307 35052 ft 418 kts 198°
2026-04-28 08:27 39.63696 -0.42467 35045 ft 418 kts 198°
2026-04-28 08:27 39.58119 -0.44625 35051 ft 418 kts 198°
2026-04-28 08:28 39.52541 -0.46779 35045 ft 418 kts 198°
2026-04-28 08:28 39.47061 -0.49252 35039 ft 417 kts 208°
2026-04-28 08:29 39.41965 -0.52812 35046 ft 416 kts 210°
2026-04-28 08:29 39.36896 -0.56414 35050 ft 416 kts 209°
2026-04-28 08:30 39.31802 -0.59982 35056 ft 417 kts 209°
2026-04-28 08:30 39.26695 -0.63527 35044 ft 417 kts 208°
2026-04-28 08:31 39.21578 -0.67067 35057 ft 417 kts 208°
2026-04-28 08:31 39.16468 -0.70599 35051 ft 417 kts 209°
2026-04-28 08:32 39.11348 -0.74134 35060 ft 418 kts 208°
2026-04-28 08:32 39.06218 -0.77667 35053 ft 418 kts 209°
2026-04-28 08:33 39.01089 -0.81196 35046 ft 418 kts 208°
2026-04-28 08:33 38.95964 -0.84721 35052 ft 418 kts 209°
2026-04-28 08:34 38.90836 -0.88241 35044 ft 418 kts 208°
2026-04-28 08:34 38.85715 -0.91751 35046 ft 417 kts 208°
2026-04-28 08:35 38.80595 -0.95256 35051 ft 417 kts 208°
2026-04-28 08:35 38.75472 -0.98757 35048 ft 417 kts 208°
2026-04-28 08:36 38.70346 -1.02251 35055 ft 417 kts 208°
2026-04-28 08:36 38.65229 -1.05734 35047 ft 416 kts 208°
2026-04-28 08:37 38.60117 -1.09208 35045 ft 416 kts 208°
2026-04-28 08:37 38.55002 -1.12680 35052 ft 416 kts 208°
2026-04-28 08:38 38.49899 -1.16140 35045 ft 415 kts 208°
2026-04-28 08:38 38.44791 -1.19596 35046 ft 415 kts 208°
2026-04-28 08:39 38.39687 -1.23044 35044 ft 415 kts 208°
2026-04-28 08:39 38.34580 -1.26489 35039 ft 415 kts 208°
2026-04-28 08:40 38.29470 -1.29930 35032 ft 416 kts 208°
2026-04-28 08:40 38.24352 -1.33372 35041 ft 416 kts 208°
2026-04-28 08:41 38.19260 -1.36790 35020 ft 417 kts 208°
2026-04-28 08:41 38.14128 -1.40230 35021 ft 418 kts 208°
2026-04-28 08:42 38.08977 -1.43676 35025 ft 419 kts 208°
2026-04-28 08:42 38.03820 -1.47122 35029 ft 419 kts 207°
2026-04-28 08:43 37.98649 -1.50572 35028 ft 420 kts 207°
2026-04-28 08:43 37.93471 -1.54021 35017 ft 421 kts 207°
2026-04-28 08:44 37.88282 -1.57454 35020 ft 421 kts 207°
2026-04-28 08:44 37.83067 -1.60835 35022 ft 421 kts 207°
2026-04-28 08:45 37.77845 -1.64216 35011 ft 421 kts 207°
2026-04-28 08:45 37.72628 -1.67600 35011 ft 421 kts 207°
2026-04-28 08:46 37.67412 -1.70972 35010 ft 421 kts 207°
2026-04-28 08:46 37.62196 -1.74337 35008 ft 421 kts 207°
2026-04-28 08:47 37.56985 -1.77692 35007 ft 420 kts 207°
2026-04-28 08:47 37.51779 -1.81042 35004 ft 420 kts 207°
2026-04-28 08:48 37.46614 -1.84360 35000 ft 419 kts 207°
2026-04-28 08:48 37.41418 -1.87693 35000 ft 419 kts 207°
2026-04-28 08:49 37.36214 -1.91025 34996 ft 420 kts 207°
2026-04-28 08:49 37.30997 -1.94358 34994 ft 420 kts 207°
2026-04-28 08:50 37.25787 -1.97678 34990 ft 420 kts 206°
2026-04-28 08:50 37.20596 -2.01058 34986 ft 420 kts 208°
2026-04-28 08:51 37.15436 -2.04527 34986 ft 421 kts 208°
2026-04-28 08:51 37.10270 -2.07992 34983 ft 421 kts 208°
2026-04-28 08:52 37.05971 -2.10859 34978 ft 422 kts 208°
2026-04-28 08:52 37.00787 -2.14307 34983 ft 423 kts 208°
2026-04-28 08:53 36.95592 -2.17768 34977 ft 423 kts 208°
2026-04-28 08:53 36.90385 -2.21220 34965 ft 424 kts 208°
2026-04-28 08:54 36.85170 -2.24670 34969 ft 424 kts 208°
2026-04-28 08:54 36.79752 -2.27567 34978 ft 425 kts 199°
2026-04-28 08:55 36.74147 -2.29944 34970 ft 426 kts 199°
2026-04-28 08:55 36.68526 -2.32307 34968 ft 427 kts 199°
2026-04-28 08:55 36.65701 -2.33507 34667 ft 430 kts 199°
2026-04-28 08:56 36.62884 -2.34712 34332 ft 425 kts 199°
2026-04-28 08:56 36.60099 -2.35907 33928 ft 422 kts 199°
2026-04-28 08:56 36.57335 -2.37095 33467 ft 419 kts 199°
2026-04-28 08:56 36.54587 -2.38277 33044 ft 416 kts 199°
2026-04-28 08:57 36.51889 -2.39435 32638 ft 414 kts 198°
2026-04-28 08:57 36.49178 -2.40599 32228 ft 411 kts 198°
2026-04-28 08:57 36.46486 -2.41754 31843 ft 409 kts 198°
2026-04-28 08:57 36.43811 -2.42901 31446 ft 406 kts 198°
2026-04-28 08:58 36.41144 -2.44042 31058 ft 404 kts 198°
2026-04-28 08:58 36.38490 -2.45177 30674 ft 403 kts 197°
2026-04-28 08:58 36.35845 -2.46308 30287 ft 401 kts 197°
2026-04-28 08:58 36.33211 -2.47432 29880 ft 399 kts 197°
2026-04-28 08:59 36.30590 -2.48551 29440 ft 397 kts 197°
2026-04-28 08:59 36.27984 -2.49662 29010 ft 394 kts 197°
2026-04-28 08:59 36.25399 -2.50764 28612 ft 391 kts 197°
2026-04-28 08:59 36.22835 -2.51857 28217 ft 388 kts 197°
2026-04-28 09:00 36.20290 -2.52940 27822 ft 385 kts 197°
2026-04-28 09:00 36.17770 -2.54013 27437 ft 382 kts 197°
2026-04-28 09:00 36.15263 -2.55080 27057 ft 379 kts 196°
2026-04-28 09:00 36.12776 -2.56137 26677 ft 376 kts 197°
2026-04-28 09:01 36.10308 -2.57185 26301 ft 374 kts 196°
2026-04-28 09:01 36.07857 -2.58223 25930 ft 371 kts 196°
2026-04-28 09:01 36.05423 -2.59255 25573 ft 368 kts 196°
2026-04-28 09:01 36.03010 -2.60277 25193 ft 366 kts 196°
2026-04-28 09:02 36.00610 -2.61293 24827 ft 363 kts 196°
2026-04-28 09:02 35.98231 -2.62299 24468 ft 361 kts 195°
2026-04-28 09:02 35.95864 -2.63298 24113 ft 358 kts 195°
2026-04-28 09:02 35.93517 -2.64289 23748 ft 356 kts 196°
2026-04-28 09:03 35.91181 -2.65276 23355 ft 354 kts 196°
2026-04-28 09:03 35.88865 -2.66253 22935 ft 351 kts 195°
2026-04-28 09:03 35.86564 -2.67224 22567 ft 347 kts 196°
2026-04-28 09:03 35.84291 -2.68182 22201 ft 344 kts 196°
2026-04-28 09:04 35.82040 -2.69125 21892 ft 338 kts 196°
2026-04-28 09:04 35.79826 -2.70036 21567 ft 334 kts 196°
2026-04-28 09:04 35.77623 -2.70936 21206 ft 332 kts 196°
2026-04-28 09:04 35.75444 -2.71826 20850 ft 329 kts 196°
2026-04-28 09:05 35.73296 -2.72703 20498 ft 327 kts 196°
2026-04-28 09:05 35.71120 -2.73593 20141 ft 324 kts 197°
2026-04-28 09:05 35.68986 -2.74466 19792 ft 322 kts 197°
2026-04-28 09:05 35.66866 -2.75333 19447 ft 320 kts 197°
2026-04-28 09:06 35.64784 -2.76184 19101 ft 319 kts 197°
2026-04-28 09:06 35.62686 -2.77041 18751 ft 317 kts 197°
2026-04-28 09:06 35.60602 -2.77893 18407 ft 315 kts 197°
2026-04-28 09:06 35.58525 -2.78741 18034 ft 314 kts 198°
2026-04-28 09:07 35.56457 -2.79586 17647 ft 312 kts 198°
2026-04-28 09:07 35.54404 -2.80423 17280 ft 310 kts 198°
2026-04-28 09:07 35.52365 -2.81254 16926 ft 308 kts 197°
2026-04-28 09:07 35.50341 -2.82078 16576 ft 305 kts 198°
2026-04-28 09:08 35.48333 -2.82894 16231 ft 303 kts 197°
2026-04-28 09:08 35.46333 -2.83705 15890 ft 302 kts 197°
2026-04-28 09:08 35.44347 -2.84509 15554 ft 300 kts 198°
2026-04-28 09:08 35.42369 -2.85310 15214 ft 298 kts 197°
2026-04-28 09:09 35.40402 -2.86106 14881 ft 297 kts 198°
2026-04-28 09:09 35.38441 -2.86900 14550 ft 296 kts 198°
2026-04-28 09:09 35.36490 -2.87689 14219 ft 295 kts 198°
2026-04-28 09:09 35.34546 -2.88475 13889 ft 294 kts 198°
2026-04-28 09:10 35.32607 -2.89258 13532 ft 293 kts 198°
2026-04-28 09:10 35.30675 -2.90039 13171 ft 292 kts 197°
2026-04-28 09:10 35.28750 -2.90816 12845 ft 291 kts 198°
2026-04-28 09:10 35.26832 -2.91589 12502 ft 290 kts 198°
2026-04-28 09:11 35.24918 -2.92361 12182 ft 289 kts 198°
2026-04-28 09:11 35.23003 -2.93133 11846 ft 290 kts 198°
2026-04-28 09:11 35.21088 -2.93905 11523 ft 290 kts 197°
2026-04-28 09:11 35.19174 -2.94676 11185 ft 290 kts 198°
2026-04-28 09:12 35.17262 -2.95445 10857 ft 288 kts 198°
2026-04-28 09:12 35.15358 -2.96212 10536 ft 287 kts 198°
2026-04-28 09:12 35.13467 -2.96973 10228 ft 286 kts 198°
2026-04-28 09:12 35.11600 -2.97723 10083 ft 279 kts 198°
2026-04-28 09:13 35.09773 -2.98458 9892 ft 274 kts 198°
2026-04-28 09:13 35.07960 -2.99186 9587 ft 274 kts 198°
2026-04-28 09:13 35.06153 -2.99911 9281 ft 273 kts 197°
2026-04-28 09:13 35.04357 -3.00632 8994 ft 271 kts 197°
2026-04-28 09:14 35.02570 -3.01348 8707 ft 269 kts 197°
2026-04-28 09:14 35.00824 -3.02154 8394 ft 269 kts 210°
2026-04-28 09:14 34.99487 -3.03715 8116 ft 269 kts 238°
2026-04-28 09:14 34.98832 -3.05829 7856 ft 268 kts 261°
2026-04-28 09:15 34.98776 -3.08095 7595 ft 267 kts 271°
2026-04-28 09:15 34.98851 -3.10358 7309 ft 268 kts 272°
2026-04-28 09:15 34.98940 -3.12629 7088 ft 266 kts 273°
2026-04-28 09:15 34.99023 -3.14853 6970 ft 260 kts 273°
2026-04-28 09:16 34.99097 -3.17027 6848 ft 253 kts 273°
2026-04-28 09:16 34.99165 -3.19145 6745 ft 247 kts 273°
2026-04-28 09:16 34.99228 -3.21208 6638 ft 241 kts 272°
2026-04-28 09:16 34.99285 -3.23202 6568 ft 229 kts 272°
2026-04-28 09:17 34.99339 -3.25114 6375 ft 224 kts 273°
2026-04-28 09:17 34.99392 -3.26992 6160 ft 220 kts 273°
2026-04-28 09:17 34.99443 -3.28838 5943 ft 216 kts 272°
2026-04-28 09:17 34.99285 -3.30635 5682 ft 214 kts 247°
2026-04-28 09:18 34.98372 -3.31998 5484 ft 207 kts 211°
2026-04-28 09:18 34.97028 -3.32484 5257 ft 203 kts 176°
2026-04-28 09:18 34.95716 -3.32029 5037 ft 194 kts 144°
2026-04-28 09:18 34.94831 -3.30878 4820 ft 187 kts 115°
2026-04-28 09:19 34.94511 -3.29385 4604 ft 182 kts 86°
2026-04-28 09:19 34.94711 -3.27872 4448 ft 183 kts 80°
2026-04-28 09:19 34.94930 -3.26338 4386 ft 186 kts 79°
2026-04-28 09:19 34.95186 -3.24740 4130 ft 194 kts 78°
2026-04-28 09:20 34.95455 -3.23130 3858 ft 193 kts 77°
2026-04-28 09:20 34.95726 -3.21535 3580 ft 190 kts 78°
2026-04-28 09:20 34.95992 -3.19973 3328 ft 187 kts 78°
2026-04-28 09:20 34.96255 -3.18424 3063 ft 185 kts 77°
2026-04-28 09:21 34.96516 -3.16895 2797 ft 183 kts 77°
2026-04-28 09:21 34.96770 -3.15404 2535 ft 176 kts 77°
2026-04-28 09:21 34.97012 -3.13981 2312 ft 167 kts 77°
2026-04-28 09:21 34.97243 -3.12624 2068 ft 162 kts 77°
2026-04-28 09:22 34.97470 -3.11298 1850 ft 155 kts 77°
2026-04-28 09:22 34.97682 -3.10057 1617 ft 145 kts 77°
2026-04-28 09:22 34.97885 -3.08864 1409 ft 143 kts 77°
2026-04-28 09:22 34.98086 -3.07699 1204 ft 139 kts 78°
2026-04-28 09:23 34.98286 -3.06529 1040 ft 144 kts 77°
2026-04-28 09:23 34.98495 -3.05297 799 ft 150 kts 76°
2026-04-28 09:23 34.98712 -3.04046 620 ft 149 kts 76°
2026-04-28 09:23 34.98904 -3.02920 590 ft 118 kts 79°
2026-04-28 09:24 34.99043 -3.02114 587 ft 76 kts 78°
2026-04-28 09:24 34.99124 -3.01648 584 ft 42 kts 78°
2026-04-28 09:24 34.99172 -3.01369 581 ft 23 kts 78°
2026-04-28 09:24 34.99225 -3.01231 580 ft 12 kts 53°
2026-04-28 09:25 34.99219 -3.01190 579 ft 5 kts 144°
2026-04-28 09:25 34.99189 -3.01196 579 ft 5 kts 224°
2026-04-28 09:25 34.99183 -3.01233 580 ft 5 kts 281°
2026-04-28 09:25 34.99186 -3.01271 580 ft 5 kts 269°
2026-04-28 09:26 34.99177 -3.01324 581 ft 8 kts 253°
2026-04-28 09:26 34.99165 -3.01406 581 ft 12 kts 260°
2026-04-28 09:26 34.99147 -3.01521 583 ft 14 kts 259°
2026-04-28 09:26 34.99129 -3.01623 584 ft 15 kts 257°
2026-04-28 09:27 34.99069 -3.01968 587 ft 22 kts 258°
2026-04-28 09:27 34.99037 -3.02153 586 ft 23 kts 258°
2026-04-28 09:27 34.99002 -3.02359 586 ft 26 kts 258°
2026-04-28 09:28 34.98964 -3.02573 587 ft 25 kts 257°
2026-04-28 09:28 34.98930 -3.02769 588 ft 20 kts 258°
2026-04-28 09:28 34.98951 -3.02899 590 ft 13 kts 327°
2026-04-28 09:28 34.99039 -3.02927 591 ft 13 kts 354°
2026-04-28 09:29 34.99109 -3.02941 591 ft 9 kts 349°
2026-04-28 09:29 34.99156 -3.02985 591 ft 9 kts 279°
2026-04-28 09:29 34.99158 -3.03045 592 ft 4 kts 303°
2026-04-28 09:29 34.99183 -3.03055 592 ft 4 kts 349°
2026-04-28 09:30 34.99206 -3.03059 592 ft 2 kts 352°
2026-04-28 09:30 34.99215 -3.03061 592 ft 0 kts 350°